Powrót do katalogu

FENGYUN 1C DEB

LostPO
NORAD 36149·DEBRIS·🇨🇳 China

Wystrzelony May 10, 1999 z Taiyuan Satellite Launch Center

Loading…

Następne Przeloty (najbliższe 24 godziny)

TLE

NieaktualneSource: Space-Track

Epoka: Oct 21, 2022, 14:33 UTC

1 36149U 99025DRW 22294.60669779  .00002992  00000-0  13814-2 0  9998
2 36149  99.6041  68.8320 0029802  79.4924 280.9606 14.21586769742538

Śledź FENGYUN 1C DEB w czasie rzeczywistym z AllMySat

Download on the App Store